Location: Nashville
(36.1660°N, 86.7840°W)
Time: 02:26:07
(UTC-06:00)

Transit 4A - Visible Passes

Search period start: 28 January 2022 00:00
Search period end: 07 February 2022 00:00
Orbit: 863 x 981 km, 66.8° (Epoch: 27 January)

Date Brightness Start Highest point End Pass type
(mag) Time Alt. Az. Time Alt. Az. Time Alt. Az.
28 Jan 10.5 04:45:36 10° SE 04:49:35 19° ESE 04:53:39 10° ENE visible
29 Jan 9.8 04:53:33 10° SSE 04:58:36 29° ESE 05:03:48 10° NE visible
30 Jan 8.9 05:02:03 10° S 05:07:42 46° ESE 05:13:32 10° NE visible
31 Jan 8.1 05:10:56 10° SSW 05:16:52 71° ESE 05:23:02 10° NNE visible
01 Feb 10.6 03:37:49 10° SE 03:40:38 14° ESE 03:43:29 10° ENE visible
01 Feb 7.8 05:20:08 10° SSW 05:26:08 78° WNW 05:32:21 10° NNE visible
02 Feb 10.0 03:45:08 10° SSE 03:49:36 22° ESE 03:54:10 10° ENE visible
02 Feb 8.0 05:29:38 10° SW 05:35:28 52° WNW 05:41:33 10° NNE visible
03 Feb 9.3 03:55:48 23° SSE 03:58:39 34° ESE 04:04:08 10° NE visible
03 Feb 8.5 05:39:27 10° WSW 05:44:55 35° NW 05:50:35 10° N visible
04 Feb 8.5 04:06:41 47° SSE 04:07:46 53° ESE 04:13:46 10° NE visible
04 Feb 8.9 05:50:17 13° W 05:54:28 25° NW 05:59:28 10° N visible
05 Feb 7.8 04:17:01 82° ESE 04:17:01 82° ESE 04:23:12 10° NNE visible
05 Feb 9.3 06:00:36 11° W 06:04:06 17° NW 06:08:08 10° N visible
06 Feb 10.6 02:43:28 12° ENE 02:43:28 12° ENE 02:44:15 10° ENE visible
06 Feb 8.0 04:27:03 61° NNW 04:27:03 61° NNW 04:32:29 10° NNE visible
06 Feb 9.6 06:11:29 10° WNW 06:13:52 12° NW 06:16:15 10° NNW visible
